DW0333 Tranby-Lier NO current weather conditions

sailwx.info

Wind from 119 at 6 knots

Air temperature 7.2° C
Dewpoint 6.3° C

Last reported at 2014-Oct-26 00:39 UTC.
Time now 2014-Oct-26 01:55 UTC

Location: N 59°50' E 010°17'.
View on Google Maps.

See reports from other nearby stations

  
Tides and Currents Weather Stations Pressure Air Temp Water Temp Dewpoint Dewpoint Depression Visibility Wind Speed Wind Dir Waves Ship Positions
date/time (UTC)wind fromknots sea level pressurealtimeterstation pressurevisibilityair tempwater tempwave heightnotes
2014-Oct-26 00:39 119 6 7.2
2014-Oct-26 00:24 102 6 7.2
2014-Oct-26 00:09 152 5 7.8
2014-Oct-25 23:55 169 6 7.2
2014-Oct-25 23:39 125 6 7.2
2014-Oct-25 23:23 167 5 7.2
2014-Oct-25 23:08 155 5 7.2
2014-Oct-25 22:53 158 5 7.2
2014-Oct-25 22:38 165 6 7.2
2014-Oct-25 22:22 162 6 7.2
2014-Oct-25 22:07 154 4 7.2
2014-Oct-25 21:52 155 6 7.2
2014-Oct-25 21:37 156 6 7.2
2014-Oct-25 21:22 147 6 7.2
2014-Oct-25 21:07 175 6 7.2
2014-Oct-25 20:52 119 6 7.2
2014-Oct-25 20:37 092 5 6.7
2014-Oct-25 20:21 150 6 6.7
2014-Oct-25 20:06 196 5 6.7
2014-Oct-25 19:51 174 5 6.7
2014-Oct-25 19:36 171 5 6.7
2014-Oct-25 19:21 127 5 6.7
2014-Oct-25 19:04 104 5 6.7
2014-Oct-25 18:49 104 6 6.7
2014-Oct-25 18:34 149 6 6.7
2014-Oct-25 18:20 166 6 6.7
2014-Oct-25 18:04 152 6 6.7
2014-Oct-25 17:48 140 6 6.7
2014-Oct-25 17:33 170 6 6.7
2014-Oct-25 17:18 201 6 6.7
2014-Oct-25 17:03 166 6 7.2
2014-Oct-25 16:47 198 6 7.2
2014-Oct-25 16:33 116 7 7.2
2014-Oct-25 16:17 154 6 7.2
2014-Oct-25 16:02 198 6 7.2
2014-Oct-25 15:48 108 6 7.2
2014-Oct-25 15:32 201 6 7.8
2014-Oct-25 15:17 207 6 7.8
2014-Oct-25 15:01 140 6 8.3
2014-Oct-25 14:46 193 6 8.9
2014-Oct-25 14:31 167 6 8.3
2014-Oct-25 14:16 142 6 8.3
2014-Oct-25 14:01 168 4 8.9
2014-Oct-25 13:45 256 6 8.3
2014-Oct-25 13:30 185 6 8.9
2014-Oct-25 13:15 212 6 8.3
2014-Oct-25 12:59 207 6 8.9
2014-Oct-25 12:44 179 5 8.9
2014-Oct-25 12:29 099 4 10.0
2014-Oct-25 12:14 157 5 9.4
2014-Oct-25 11:58 146 3 8.9
2014-Oct-25 11:43 244 4 8.9
2014-Oct-25 11:29 093 3 9.4
2014-Oct-25 11:13 123 4 8.9
2014-Oct-25 10:58 182 6 9.4
2014-Oct-25 10:42 162 3 9.4
2014-Oct-25 10:29 190 4 8.9
2014-Oct-25 10:13 177 4 8.9
2014-Oct-25 09:57 143 3 8.9
2014-Oct-25 09:42 217 4 8.3
2014-Oct-25 09:27 173 3 8.3
2014-Oct-25 09:12 142 4 7.8
2014-Oct-25 08:58 192 3 7.8
2014-Oct-25 08:42 203 3 7.2
2014-Oct-25 08:26 200 3 7.2
2014-Oct-25 08:11 190 2 6.1
2014-Oct-25 07:54 229 4 6.1
2014-Oct-25 07:39 263 4 6.1
2014-Oct-25 07:24 253 4 6.1
2014-Oct-25 07:09 196 6 6.1
2014-Oct-25 06:54 238 1 6.7
2014-Oct-25 06:38 212 2 6.7
2014-Oct-25 06:23 217 4 7.2
2014-Oct-25 06:09 212 4 7.2
2014-Oct-25 05:53 242 4 7.2
2014-Oct-25 05:37 221 4 7.2
2014-Oct-25 05:22 245 3 7.8
2014-Oct-25 05:07 212 1 8.9
2014-Oct-25 04:52 212 2 8.9
2014-Oct-25 04:37 167 2 9.4
2014-Oct-25 04:22 151 1 9.4
2014-Oct-25 04:06 154 2 9.4
2014-Oct-25 03:51 221 3 9.4
2014-Oct-25 03:37 224 4 9.4
2014-Oct-25 03:21 169 4 9.4
2014-Oct-25 03:07 194 5 9.4
2014-Oct-25 02:51 128 5 9.4
2014-Oct-25 02:34 140 5 9.4
2014-Oct-25 02:19 147 4 9.4
2014-Oct-25 02:04 185 4 9.4
2014-Oct-25 01:49 156 4 9.4
2014-Oct-25 01:33 143 5 9.4
2014-Oct-25 01:18 054 5 9.4
2014-Oct-25 01:04 143 4 10.0
2014-Oct-25 00:48 162 5 10.0
2014-Oct-25 00:32 163 4 10.0
2014-Oct-25 00:17 188 5 10.0
2014-Oct-25 00:02 154 4 10.0
2014-Oct-24 23:48 151 4 10.0
2014-Oct-24 23:32 148 3 10.0
2014-Oct-24 23:17 138 5 10.0
2014-Oct-24 23:02 118 6 10.0
2014-Oct-24 22:46 135 5 10.0
2014-Oct-24 22:31 146 4 10.0
2014-Oct-24 22:17 152 5 10.0
2014-Oct-24 22:02 146 4 10.0
2014-Oct-24 21:47 144 5 10.0
2014-Oct-24 21:32 178 6 10.0
2014-Oct-24 21:14 163 5 10.0
2014-Oct-24 20:59 221 5 10.6
2014-Oct-24 20:44 164 6 10.0
2014-Oct-24 20:30 169 6 10.6
2014-Oct-24 20:14 143 6 10.6
2014-Oct-24 19:58 182 6 10.6
2014-Oct-24 19:43 161 6 10.6
2014-Oct-24 19:28 159 6 10.6
2014-Oct-24 19:13 139 6 10.6
2014-Oct-24 18:58 152 6 10.6
2014-Oct-24 18:42 120 6 10.0
2014-Oct-24 18:28 150 6 10.6
2014-Oct-24 18:12 146 6 10.6
2014-Oct-24 17:58 154 6 10.6
2014-Oct-24 17:42 207 5 10.6
2014-Oct-24 17:28 183 5 10.6
2014-Oct-24 17:12 179 5 10.6
2014-Oct-24 16:57 148 6 10.6
2014-Oct-24 16:41 174 6 10.6
2014-Oct-24 16:27 128 5 10.6
2014-Oct-24 16:12 156 6 10.6
2014-Oct-24 15:57 154 6 10.6
2014-Oct-24 15:41 178 5 10.6
2014-Oct-24 15:24 169 6 10.6
2014-Oct-24 15:09 140 5 10.6
2014-Oct-24 14:54 144 5 10.6
2014-Oct-24 14:09 121 6 10.6
2014-Oct-24 13:53 154 5 10.6
2014-Oct-24 13:38 127 5 10.6
2014-Oct-24 13:23 044 5 10.6
2014-Oct-24 13:07 106 5 10.6
2014-Oct-24 12:52 143 4 10.6
2014-Oct-24 12:37 156 6 10.6
2014-Oct-24 12:23 126 5 10.6
2014-Oct-24 12:07 138 6 10.6
2014-Oct-24 11:53 078 6 10.6
2014-Oct-24 11:37 169 6 10.6
2014-Oct-24 11:22 138 6 10.6
2014-Oct-24 11:06 139 6 10.6
2014-Oct-24 10:51 158 6 10.6
2014-Oct-24 10:36 217 6 10.6
2014-Oct-24 10:21 150 6 10.6
2014-Oct-24 10:07 165 6 10.6
2014-Oct-24 09:52 156 7 10.0
2014-Oct-24 09:35 161 8 10.0
2014-Oct-24 09:19 196 7 10.0
2014-Oct-24 09:04 130 8 10.0
2014-Oct-24 08:49 174 9 10.0
2014-Oct-24 08:33 176 7 10.0
2014-Oct-24 08:18 101 9 10.0
2014-Oct-24 08:03 128 7 10.0
2014-Oct-24 07:48 134 6 10.0
2014-Oct-24 07:32 131 8 10.0
2014-Oct-24 07:17 125 9 10.0
2014-Oct-24 07:02 161 9 10.0
2014-Oct-24 06:48 146 8 9.4
2014-Oct-24 06:32 128 6 9.4
2014-Oct-24 06:17 101 6 9.4
2014-Oct-24 06:03 150 6 9.4
2014-Oct-24 05:46 148 6 9.4
2014-Oct-24 05:32 186 6 9.4
2014-Oct-24 05:17 152 4 9.4
2014-Oct-24 05:02 127 5 8.9
2014-Oct-24 04:47 197 6 8.9
2014-Oct-24 04:31 119 6 8.9
2014-Oct-24 04:15 119 6 8.9
2014-Oct-24 03:59 179 6 8.9
2014-Oct-24 03:45 162 6 8.9
2014-Oct-24 03:30 124 4 8.9
2014-Oct-24 03:14 071 5 8.3
2014-Oct-24 02:59 123 5 8.3
2014-Oct-24 02:43 127 4 8.3
2014-Oct-24 02:29 135 5 8.3
2014-Oct-24 02:13 212 5 8.3
2014-Oct-24 01:58 167 5 8.3
2014-Oct-24 01:43 166 4 8.3
2014-Oct-24 01:28 143 4 8.3
2014-Oct-24 01:13 100 5 8.3